When you browse on this site, cookies collect data to enhance your experience and personalize the content and advertising you see.
Visit our Privacy Policy to learn more. By continuing to use the site, you agree to this use of cookies and data.
  • In Schweiz
  • Länderverzeichnis
  • Für 7 Tage
  • Wassertemperatur
  • Wetterkarte
  • Widgets
  • user-avatar
    Anmelden

    Stündliche Wetter Sidi Bu-l-Abbas

    Heute, 18 Oktober, Freitag

    Zeit Temperatur Niederschläge Wind Luftdruck Luftfeuchtigkeit
    00:00 +18°C° 0 mm 0 m/S 722 mmHg 72%
    01:00 +17°C° 0 mm 0 m/S 722 mmHg 74%
    02:00 +17°C° 0 mm 0 m/S 722 mmHg 75%
    03:00 +16°C° 0 mm 0 m/S 721 mmHg 77%
    04:00 +16°C° 0 mm 0 m/S 721 mmHg 78%
    05:00 +16°C° 0 mm 0 m/S 721 mmHg 79%
    06:00 +15°C° 0 mm 0 m/S 721 mmHg 79%
    07:00 +17°C° 0 mm 0 m/S 721 mmHg 71%
    08:00 +19°C° 0 mm 0 m/S 722 mmHg 63%
    09:00 +21°C° 0 mm 0 m/S 722 mmHg 55%
    10:00 +24°C° 0 mm 1 m/S 722 mmHg 48%
    11:00 +25°C° 0 mm 1 m/S 722 mmHg 42%
    12:00 +27°C° 0 mm 2 m/S 722 mmHg 36%
    13:00 +27°C° 0 mm 2 m/S 721 mmHg 35%
    14:00 +27°C° 0 mm 3 m/S 721 mmHg 33%
    15:00 +27°C° 0 mm 3 m/S 721 mmHg 31%
    16:00 +26°C° 0 mm 3 m/S 720 mmHg 34%
    17:00 +25°C° 0 mm 2 m/S 720 mmHg 36%
    18:00 +23°C° 0 mm 1 m/S 720 mmHg 38%
    19:00 +23°C° 0 mm 1 m/S 720 mmHg 41%
    20:00 +22°C° 0 mm 1 m/S 720 mmHg 43%
    21:00 +20°C° 0 mm 0 m/S 720 mmHg 45%
    22:00 +19°C° 0 mm 0 m/S 720 mmHg 46%
    23:00 +21°C° 0 mm 1 m/S 719 mmHg 47%

    Morgen, 19 Oktober, Samstag

    Zeit Temperatur Niederschläge Wind Luftdruck Luftfeuchtigkeit
    00:00 +21°C° 0 mm 1 m/S 719 mmHg 48%
    01:00 +21°C° 0 mm 1 m/S 719 mmHg 50%
    02:00 +20°C° 0 mm 1 m/S 718 mmHg 52%
    03:00 +20°C° 0 mm 1 m/S 718 mmHg 54%
    04:00 +19°C° 0 mm 1 m/S 718 mmHg 55%
    05:00 +19°C° 0 mm 1 m/S 718 mmHg 56%
    06:00 +19°C° 0 mm 1 m/S 718 mmHg 57%
    07:00 +20°C° 0 mm 1 m/S 718 mmHg 51%
    08:00 +22°C° 0 mm 1 m/S 718 mmHg 45%
    09:00 +24°C° 0 mm 2 m/S 719 mmHg 39%
    10:00 +25°C° 0 mm 2 m/S 719 mmHg 37%
    11:00 +26°C° 0 mm 3 m/S 718 mmHg 35%
    12:00 +27°C° 0 mm 4 m/S 718 mmHg 34%
    13:00 +27°C° 0 mm 4 m/S 718 mmHg 35%
    14:00 +27°C° 0 mm 3 m/S 717 mmHg 37%
    15:00 +28°C° 0 mm 3 m/S 717 mmHg 38%
    16:00 +26°C° 0 mm 3 m/S 717 mmHg 43%
    17:00 +25°C° 0 mm 2 m/S 716 mmHg 48%
    18:00 +24°C° 0 mm 1 m/S 716 mmHg 52%
    19:00 +24°C° 0 mm 1 m/S 717 mmHg 54%
    20:00 +23°C° 0 mm 1 m/S 717 mmHg 56%
    21:00 +23°C° 0 mm 1 m/S 717 mmHg 58%
    22:00 +22°C° 0 mm 1 m/S 717 mmHg 60%
    23:00 +22°C° 0 mm 1 m/S 717 mmHg 61%

    übermorgen, 20 Oktober, Sonntag

    Zeit Temperatur Niederschläge Wind Luftdruck Luftfeuchtigkeit
    00:00 +22°C° 0 mm 1 m/S 717 mmHg 62%
    01:00 +21°C° 0 mm 1 m/S 716 mmHg 62%
    02:00 +21°C° 0 mm 1 m/S 716 mmHg 62%
    03:00 +21°C° 0 mm 1 m/S 716 mmHg 62%
    04:00 +21°C° 0 mm 1 m/S 716 mmHg 65%
    05:00 +20°C° 0 mm 2 m/S 716 mmHg 68%
    06:00 +20°C° 0 mm 2 m/S 716 mmHg 70%
    07:00 +20°C° 0 mm 3 m/S 717 mmHg 69%
    08:00 +21°C° 0 mm 3 m/S 717 mmHg 68%
    09:00 +21°C° 0 mm 3 m/S 718 mmHg 67%
    10:00 +22°C° 0 mm 4 m/S 718 mmHg 66%
    11:00 +22°C° 0 mm 5 m/S 718 mmHg 64%
    12:00 +23°C° 0 mm 5 m/S 717 mmHg 63%
    13:00 +22°C° 0.3 mm 5 m/S 717 mmHg 66%
    14:00 +21°C° 0.3 mm 5 m/S 717 mmHg 70%
    15:00 +20°C° 0.3 mm 5 m/S 717 mmHg 74%
    16:00 +19°C° 0.7 mm 5 m/S 717 mmHg 76%
    17:00 +18°C° 0.7 mm 4 m/S 717 mmHg 77%
    18:00 +18°C° 0.7 mm 4 m/S 717 mmHg 79%
    19:00 +17°C° 0.8 mm 4 m/S 718 mmHg 80%
    20:00 +17°C° 0.8 mm 3 m/S 718 mmHg 82%
    21:00 +16°C° 0.8 mm 3 m/S 719 mmHg 84%
    22:00 +16°C° 1.4 mm 2 m/S 719 mmHg 85%
    23:00 +16°C° 1.4 mm 2 m/S 719 mmHg 87%

    21 Oktober, Montag

    Zeit Temperatur Niederschläge Wind Luftdruck Luftfeuchtigkeit
    00:00 +16°C° 1.4 mm 2 m/S 719 mmHg 89%
    01:00 +16°C° 0.8 mm 2 m/S 719 mmHg 89%
    02:00 +15°C° 0.8 mm 2 m/S 718 mmHg 89%
    03:00 +15°C° 0.8 mm 1 m/S 718 mmHg 89%
    04:00 +15°C° 0.2 mm 1 m/S 718 mmHg 89%
    05:00 +15°C° 0.2 mm 2 m/S 718 mmHg 88%
    06:00 +16°C° 0.2 mm 2 m/S 718 mmHg 88%
    07:00 +16°C° 0 mm 2 m/S 719 mmHg 85%
    08:00 +16°C° 0 mm 2 m/S 719 mmHg 82%
    09:00 +16°C° 0 mm 2 m/S 720 mmHg 79%
    10:00 +16°C° 0 mm 3 m/S 720 mmHg 76%
    11:00 +17°C° 0 mm 4 m/S 720 mmHg 72%
    12:00 +17°C° 0 mm 4 m/S 720 mmHg 69%
    13:00 +15°C° 0.1 mm 4 m/S 719 mmHg 68%
    14:00 +15°C° 0.1 mm 5 m/S 719 mmHg 68%
    15:00 +14°C° 0.1 mm 5 m/S 718 mmHg 68%
    16:00 +13°C° 0.5 mm 4 m/S 718 mmHg 70%
    17:00 +13°C° 0.5 mm 3 m/S 718 mmHg 71%
    18:00 +12°C° 0.5 mm 3 m/S 719 mmHg 73%
    19:00 +13°C° 1 mm 2 m/S 719 mmHg 75%
    20:00 +12°C° 1 mm 2 m/S 719 mmHg 77%
    21:00 +12°C° 1 mm 2 m/S 719 mmHg 79%
    22:00 +12°C° 2.6 mm 2 m/S 719 mmHg 82%
    23:00 +11°C° 2.6 mm 1 m/S 719 mmHg 85%

    22 Oktober, Dienstag

    Zeit Temperatur Niederschläge Wind Luftdruck Luftfeuchtigkeit
    00:00 +11°C° 2.6 mm 1 m/S 719 mmHg 88%
    01:00 +11°C° 3.2 mm 1 m/S 718 mmHg 87%
    02:00 +12°C° 3.2 mm 1 m/S 718 mmHg 86%
    03:00 +12°C° 3.2 mm 1 m/S 718 mmHg 85%
    04:00 +12°C° 1 mm 1 m/S 718 mmHg 85%
    05:00 +12°C° 1 mm 1 m/S 717 mmHg 85%
    06:00 +12°C° 1 mm 1 m/S 717 mmHg 85%
    07:00 +12°C° 0.5 mm 1 m/S 717 mmHg 85%
    08:00 +12°C° 0.5 mm 1 m/S 717 mmHg 86%
    09:00 +12°C° 0.5 mm 1 m/S 717 mmHg 86%
    10:00 +12°C° 0.5 mm 1 m/S 716 mmHg 84%
    11:00 +12°C° 0.5 mm 2 m/S 716 mmHg 81%
    12:00 +13°C° 0.5 mm 2 m/S 716 mmHg 79%
    13:00 +11°C° 0.3 mm 3 m/S 715 mmHg 80%
    14:00 +11°C° 0.3 mm 4 m/S 715 mmHg 80%
    15:00 +11°C° 0.3 mm 4 m/S 714 mmHg 81%
    16:00 +11°C° 0.7 mm 4 m/S 714 mmHg 82%
    17:00 +11°C° 0.7 mm 3 m/S 715 mmHg 83%
    18:00 +11°C° 0.7 mm 3 m/S 715 mmHg 85%
    19:00 +11°C° 0.1 mm 3 m/S 715 mmHg 83%
    20:00 +12°C° 0.1 mm 2 m/S 715 mmHg 81%
    21:00 +12°C° 0.1 mm 2 m/S 715 mmHg 79%
    22:00 +11°C° 0 mm 3 m/S 715 mmHg 77%
    23:00 +11°C° 0 mm 3 m/S 715 mmHg 75%

    23 Oktober, Mittwoch

    Zeit Temperatur Niederschläge Wind Luftdruck Luftfeuchtigkeit
    00:00 +11°C° 0 mm 4 m/S 715 mmHg 73%
    01:00 +10°C° 0 mm 5 m/S 714 mmHg 74%
    02:00 +10°C° 0 mm 5 m/S 714 mmHg 75%
    03:00 +10°C° 0 mm 6 m/S 713 mmHg 77%
    04:00 +10°C° 0 mm 6 m/S 714 mmHg 76%
    05:00 +10°C° 0 mm 6 m/S 714 mmHg 75%
    06:00 +10°C° 0 mm 6 m/S 714 mmHg 75%
    07:00 +10°C° 0.1 mm 8 m/S 714 mmHg 71%
    08:00 +11°C° 0.1 mm 10 m/S 714 mmHg 68%
    09:00 +12°C° 0.1 mm 12 m/S 714 mmHg 64%
    10:00 +13°C° 0.1 mm 13 m/S 714 mmHg 60%
    11:00 +14°C° 0.1 mm 13 m/S 715 mmHg 56%
    12:00 +15°C° 0.1 mm 14 m/S 715 mmHg 52%
    13:00 +15°C° 0 mm 15 m/S 715 mmHg 52%
    14:00 +15°C° 0 mm 15 m/S 715 mmHg 51%
    15:00 +15°C° 0 mm 15 m/S 715 mmHg 50%
    16:00 +15°C° 0 mm 13 m/S 715 mmHg 53%
    17:00 +14°C° 0 mm 11 m/S 715 mmHg 57%
    18:00 +15°C° 0 mm 9 m/S 715 mmHg 60%
    19:00 +13°C° 0 mm 9 m/S 716 mmHg 61%
    20:00 +13°C° 0 mm 8 m/S 716 mmHg 62%
    21:00 +14°C° 0 mm 7 m/S 716 mmHg 63%
    22:00 +14°C° 0 mm 7 m/S 716 mmHg 65%
    23:00 +12°C° 0 mm 7 m/S 717 mmHg 66%
    Mehr zeigen